Weather History for Fallon NAS, NV

Change the Weather History Date:

Tuesday, January 24, 2012

  Actual Average Record
Temperature  
Mean Temperature 36 °F -  
Max Temperature 46 °F 46 °F 67 °F (1946)
Min Temperature 26 °F 21 °F -6 °F (1949)
Degree Days  
Heating Degree Days 29    
Moisture  
Dew Point 30 °F    
Average Humidity 78    
Maximum Humidity 96    
Minimum Humidity 50    
Precipitation  
Precipitation 0.01 in - - ()
Sea Level Pressure  
Sea Level Pressure 30.17 in    
Wind  
Wind Speed 4 mph (South)    
Max Wind Speed 9 mph    
Max Gust Speed -    
Visibility 10 miles    
Events      
Averages and records for this station are not official NWS values.
T = Trace of Precipitation, MM = Missing Value Source: NWS Daily Summary

Daily Weather History Graph

Daily Weather History Graph

Search for Another Location

Airport:

Trip Planner

Search our weather history database for the weather conditions in past years. The results will help you decide how hot, cold, wet, or windy it might be!

Date:

Astronomy

Jan. 24, 2012 Rise Set
Actual Time 7:08 AM PST 5:05 PM PST
Civil Twilight 6:39 AM PST 5:34 PM PST
Nautical Twilight 6:07 AM PST 6:06 PM PST
Astronomical Twilight 5:35 AM PST 6:38 PM PST
Moon 7:41 AM PST (1/24) 7:01 PM PST (1/24)
Length of Visible Light 10h 54m
Length of Day
9h 56m
Waxing Crescent, 3% of the Moon is Illuminated
Jan 24
Waxing Crescent
Jan 30
First Quarter
Feb 7
Full
Feb 14
Last Quarter
Feb 21
New

Hourly Weather History & Observations

Time (PST) Temp. Windchill Dew Point Humidity Pressure Visibility Wind Dir Wind Speed Gust Speed Precip Events Conditions
12:56 AM 30.0 °F - 28.9 °F 96% 30.05 in 10.0 mi Calm Calm - N/A   Clear
1:56 AM 28.9 °F 23.9 °F 28.0 °F 96% 30.08 in 10.0 mi SSE 4.6 mph - N/A   Clear
2:56 AM 28.9 °F 22.8 °F 28.0 °F 96% 30.08 in 10.0 mi SSE 5.8 mph - N/A   Clear
3:56 AM 28.9 °F 23.9 °F 28.0 °F 96% 30.10 in 10.0 mi SSE 4.6 mph - N/A   Clear
4:56 AM 28.0 °F 21.7 °F 27.0 °F 96% 30.12 in 10.0 mi SSW 5.8 mph - N/A   Scattered Clouds
5:56 AM 27.0 °F 20.5 °F 26.1 °F 96% 30.12 in 10.0 mi SSE 5.8 mph - N/A   Clear
6:16 AM 26.6 °F 21.2 °F 24.8 °F 93% 30.25 in 10.0 mi South 4.6 mph - N/A   Partly Cloudy
6:56 AM 26.1 °F 19.4 °F 25.0 °F 96% 30.14 in 10.0 mi SE 5.8 mph - N/A   Scattered Clouds
7:56 AM 28.0 °F 24.2 °F 27.0 °F 96% 30.15 in 10.0 mi South 3.5 mph - N/A   Mostly Cloudy
8:56 AM 33.1 °F 30.0 °F 30.9 °F 92% 30.18 in 10.0 mi SE 3.5 mph - N/A   Mostly Cloudy
9:56 AM 37.9 °F 34.4 °F 34.0 °F 86% 30.20 in 10.0 mi SSE 4.6 mph - 0.01 in   Overcast
10:56 AM 41.0 °F 35.2 °F 33.1 °F 73% 30.19 in 10.0 mi South 9.2 mph - N/A   Overcast
11:56 AM 44.1 °F 39.5 °F 30.9 °F 60% 30.18 in 10.0 mi South 8.1 mph - N/A   Overcast
12:56 PM 46.0 °F 41.9 °F 30.9 °F 56% 30.16 in 10.0 mi SSE 8.1 mph - N/A   Overcast
1:56 PM 46.9 °F - 30.0 °F 52% 30.14 in 10.0 mi South 8.1 mph - N/A   Mostly Cloudy
2:56 PM 46.9 °F - 28.9 °F 50% 30.16 in 10.0 mi South 4.6 mph - N/A   Overcast
3:56 PM 46.9 °F - 30.9 °F 54% 30.17 in 10.0 mi South 4.6 mph - N/A   Overcast
4:56 PM 45.0 °F 41.8 °F 33.1 °F 63% 30.18 in 10.0 mi South 5.8 mph - N/A   Overcast
5:56 PM 41.0 °F 37.1 °F 34.0 °F 76% 30.21 in 10.0 mi South 5.8 mph - N/A   Mostly Cloudy
6:56 PM 41.0 °F 36.4 °F 30.9 °F 67% 30.22 in 10.0 mi South 6.9 mph - N/A   Mostly Cloudy
7:56 PM 39.9 °F 34.5 °F 30.0 °F 68% 30.22 in 10.0 mi SSE 8.1 mph - N/A   Mostly Cloudy
8:56 PM 39.0 °F 35.7 °F 30.0 °F 70% 30.25 in 10.0 mi South 4.6 mph - N/A   Scattered Clouds
9:56 PM 37.0 °F - 30.0 °F 76% 30.28 in 10.0 mi Calm Calm - N/A   Mostly Cloudy
10:56 PM 36.0 °F 32.1 °F 30.0 °F 79% 30.27 in 10.0 mi South 4.6 mph - N/A   Overcast
11:56 PM 36.0 °F - 30.0 °F 79% 30.27 in 10.0 mi Calm Calm - N/A   Mostly Cloudy